SL-16 R/B (24298 NORAD) Tracking and Keplerian Element Data

This shows tracking and keplerian element data for the satellite.

Feedback or suggestion? Click here.




ElementValue
Catalog24298
NameSL-16 R/B
Epoch Orbit46534
Epoch Day34.94535431
Epoch Year2025
RAAN298.9801
Inclination70.7799
Eccentricity0.001631
Argument of Perigee354.6938
Mean Anonmoly5.4006
Mean Motion14.12440613
Decay Rate-1.78E-06
L11 24298U 96051B 25034.94535431 -.00000178 00000+0 -69509-4 0 9994
L22 24298 70.7799 298.9801 0016310 354.6938 5.4006 14.12440613465345



Live tracking and technical data element details for SL-16 R/B (NORAD 24298). SL-16 R/B can be tracked NOW for your location showing map with azimuth and elevation plus other details from your city location.







IsCatalogInMostPopularTable: catalog: 24298, numindb: 347
Update: records affected: 1



GetName: 24298 SL-16 R/B

Hit Count: updated at: Sat, 24 May 2025 16:21:07 GMT